Weather History for KPMD - May, 2013

Change the Weather History Date:

Wednesday, May 8, 2013

  Actual Average Record
Temperature  
Mean Temperature 62 °F 65 °F  
Max Temperature 72 °F 80 °F 99 °F (2001)
Min Temperature 51 °F 50 °F 33 °F (1950)
Degree Days  
Heating Degree Days 3 3  
Month to date heating degree days 25 28  
Since 1 July heating degree days 2540 2878  
Cooling Degree Days 0 3  
Month to date cooling degree days 10 20  
Year to date cooling degree days 83 43  
Growing Degree Days 11 (Base 50)    
Moisture  
Dew Point 42 °F    
Average Humidity 53    
Maximum Humidity 71    
Minimum Humidity 35    
Precipitation  
Precipitation 0.00 in 0.01 in 1.10 in (1977)
Month to date precipitation 0.00 0.10  
Year to date precipitation 0.71 5.08  
Since 1 July precipitation 1.00  
Snow  
Snow 0.00 in - - ()
Month to date snowfall 0.0  
Since 1 July snowfall 0.0  
Snow Depth 0.00 in    
Sea Level Pressure  
Sea Level Pressure 30.01 in    
Wind  
Wind Speed 14 mph (SW)    
Max Wind Speed 24 mph    
Max Gust Speed 29 mph    
Visibility 10 miles    
Events      
T = Trace of Precipitation, MM = Missing Value Source: NWS Daily Summary

Daily Weather History Graph

Daily Weather History Graph

Search for Another Location

Airport or City:

Trip Planner

Search our weather history database for the weather conditions in past years. The results will help you decide how hot, cold, wet, or windy it might be!

Date:

Astronomy

May. 08, 2013 Rise Set
Actual Time 5:55 AM PDT 7:43 PM PDT
Civil Twilight 5:27 AM PDT 8:10 PM PDT
Nautical Twilight 4:54 AM PDT 8:43 PM PDT
Astronomical Twilight 4:19 AM PDT 9:19 PM PDT
Moon 5:02 AM PDT (5/8) 6:47 PM PDT (5/8)
Length of Visible Light 14h 42m
Length of Day
13h 48m
Waning Crescent, 1% of the Moon is Illuminated
May 8
Waning Crescent
May 9
New
May 17
First Quarter
May 24
Full
May 31
Last Quarter

Hourly Weather History & Observations

Time (PDT) Temp. Dew Point Humidity Pressure Visibility Wind Dir Wind Speed Gust Speed Precip Events Conditions
12:53 AM 54.0 °F 41.0 °F 62% 30.00 in 10.0 mi SW 20.7 mph - N/A   Clear
1:53 AM 53.1 °F 41.0 °F 64% 29.99 in 10.0 mi SW 15.0 mph - N/A   Clear
2:53 AM 53.1 °F 41.0 °F 64% 29.99 in 10.0 mi SW 17.3 mph - N/A   Clear
3:53 AM 52.0 °F 42.1 °F 69% 30.01 in 10.0 mi WSW 11.5 mph - N/A   Clear
4:53 AM 51.1 °F 42.1 °F 71% 30.00 in 10.0 mi SW 19.6 mph - N/A   Clear
5:53 AM 51.1 °F 43.0 °F 74% 30.02 in 10.0 mi SW 17.3 mph - N/A   Clear
6:53 AM 53.1 °F 42.1 °F 66% 30.04 in 10.0 mi SW 10.4 mph - N/A   Clear
7:53 AM 55.9 °F 43.0 °F 62% 30.04 in 10.0 mi SW 13.8 mph - N/A   Clear
8:53 AM 59.0 °F 43.0 °F 55% 30.05 in 10.0 mi SW 10.4 mph - N/A   Clear
9:53 AM 61.0 °F 42.1 °F 50% 30.04 in 10.0 mi Variable 4.6 mph - N/A   Clear
10:53 AM 64.0 °F 41.0 °F 43% 30.04 in 10.0 mi West 5.8 mph - N/A   Clear
11:53 AM 66.0 °F 39.9 °F 38% 30.03 in 10.0 mi West 8.1 mph - N/A   Scattered Clouds
12:53 PM 68.0 °F 39.9 °F 36% 30.01 in 10.0 mi Variable 4.6 mph - N/A   Partly Cloudy
1:53 PM 70.0 °F 42.1 °F 36% 30.00 in 10.0 mi WSW 10.4 mph 19.6 mph N/A   Overcast
2:53 PM 71.1 °F 42.1 °F 35% 29.99 in 10.0 mi WSW 18.4 mph 25.3 mph N/A   Clear
3:53 PM 70.0 °F 42.1 °F 36% 29.97 in 10.0 mi WSW 19.6 mph - N/A   Clear
4:53 PM 69.1 °F 43.0 °F 39% 29.98 in 10.0 mi WSW 18.4 mph - N/A   Clear
5:53 PM 66.9 °F 44.1 °F 44% 29.99 in 10.0 mi WSW 21.9 mph 28.8 mph N/A   Clear
6:53 PM 63.0 °F 44.1 °F 50% 30.00 in 10.0 mi WSW 17.3 mph - N/A   Clear
7:53 PM 60.1 °F 44.1 °F 55% 30.01 in 10.0 mi SW 18.4 mph - N/A   Clear
8:53 PM 57.0 °F 44.1 °F 62% 30.02 in 10.0 mi SSW 17.3 mph - N/A   Clear
9:53 PM 57.0 °F 43.0 °F 59% 30.04 in 10.0 mi SW 13.8 mph - N/A   Clear
10:53 PM 55.9 °F 42.1 °F 60% 30.04 in 10.0 mi SW 10.4 mph - N/A   Clear
11:53 PM 55.9 °F 42.1 °F 60% 30.05 in 10.0 mi SW 11.5 mph - N/A   Clear